DL8BNG-13 Weather Reports


time (UTC)temp
F
wind
direction
speed
knots
gust
knots
rain 1hr
in
rain 24hr
in
rain mn
in
humidity
%
barometer
mb
20260507140002 54 175 3.5 0.0 0.00 0.00 0.23 72
20260507134503 55 187 4.3 0.0 0.00 0.00 0.23 73
20260507133002 55 150 3.5 0.0 0.00 0.00 0.23 72
20260507131502 56 185 3.5 0.0 0.00 0.00 0.23 71
20260507130003 56 202 9.6 0.0 0.00 0.00 0.23 71
20260507124502 55 165 3.5 0.0 0.00 0.00 0.23 72
20260507123002 54 150 3.5 0.0 0.00 0.00 0.23 75
20260507121503 52 80 2.6 0.0 0.00 0.00 0.23 78
20260507120002 52 175 4.3 0.0 0.00 0.00 0.23 77
20260507114503 53 185 3.5 0.0 0.00 0.00 0.23 77
20260507113002 53 152 2.6 0.0 0.00 0.00 0.23 79
20260507111503 51 165 4.3 0.0 0.00 0.00 0.23 81
20260507110002 51 157 3.5 0.0 0.00 0.00 0.23 81
20260507104503 51 167 2.6 0.0 0.00 0.00 0.23 81
20260507103002 52 160 1.7 0.0 0.00 0.00 0.23 83
20260507101502 51 137 1.7 0.0 0.00 0.00 0.23 84
20260507100002 50 255 3.5 0.0 0.00 0.00 0.23 83
20260507094503 50 195 2.6 0.0 0.00 0.00 0.23 83
20260507093002 50 200 4.3 0.0 0.00 0.00 0.23 83
20260507091502 50 17 1.7 0.0 0.00 0.00 0.23 83
20260507090002 50 202 2.6 0.0 0.00 0.00 0.23 84
20260507084502 50 140 5.2 0.0 0.00 0.00 0.23 83
20260507083002 52 147 2.6 0.0 0.00 0.00 0.23 82
20260507081502 52 170 2.6 0.0 0.00 0.00 0.23 83
20260507080002 51 182 4.3 0.0 0.00 0.00 0.23 84
20260507074502 50 145 3.5 0.0 0.00 0.00 0.23 85
20260507073003 51 167 2.6 0.0 0.00 0.00 0.23 85
20260507071502 51 190 2.6 0.0 0.00 0.00 0.23 85
20260507070003 51 285 0.0 0.0 0.00 0.00 0.23 86
20260507064502 51 140 2.6 0.0 0.00 0.00 0.23 86
20260507063002 51 232 3.5 0.0 0.00 0.00 0.23 87
20260507061502 50 195 2.6 0.0 0.00 0.00 0.22 87
20260507060001 50 297 2.6 0.0 0.00 0.00 0.22 87
20260507054502 50 292 1.7 0.0 0.00 0.00 0.22 87
20260507053003 50 300 2.6 0.0 0.00 0.00 0.22 87
20260507051501 50 115 1.7 0.0 0.00 0.00 0.22 88
20260507050001 50 132 1.7 0.0 0.00 0.00 0.22 88
20260507044502 50 185 2.6 0.0 0.00 0.00 0.22 88
20260507043002 49 162 2.6 0.0 0.00 0.00 0.22 88
20260507041502 49 22 1.7 0.0 0.00 0.00 0.22 89
20260507040003 49 160 1.7 0.0 0.00 0.00 0.21 89
20260507034503 50 100 0.0 0.0 0.00 0.00 0.20 89
20260507033003 50 130 1.7 0.0 0.00 0.00 0.19 89
20260507031503 50 212 2.6 0.0 0.00 0.00 0.19 89
20260507030003 50 212 3.5 0.0 0.00 0.00 0.19 89
20260507024503 50 202 2.6 0.0 0.00 0.00 0.17 89
20260507023003 50 125 1.7 0.0 0.00 0.00 0.17 89
20260507021502 50 185 1.7 0.0 0.00 0.00 0.16 88
20260507020003 51 210 3.5 0.0 0.00 0.00 0.16 88
20260507014503 51 172 3.5 0.0 0.00 0.00 0.15 88
20260507013003 51 195 1.7 0.0 0.00 0.00 0.15 88
20260507011502 51 180 4.3 0.0 0.00 0.00 0.15 88
20260507010003 52 202 5.2 0.0 0.00 0.00 0.15 88
20260507004502 52 212 3.5 0.0 0.00 0.00 0.15 88
20260507003001 52 195 2.6 0.0 0.00 0.00 0.14 88
20260507001503 53 190 2.6 0.0 0.00 0.00 0.14 88
20260507000003 53 185 2.6 0.0 0.00 0.00 0.14 89
20260506234502 53 195 0.0 0.0 0.00 0.00 0.14 88
20260506233003 53 202 0.0 0.0 0.00 0.00 0.13 88
20260506231503 53 160 0.0 0.0 0.00 0.00 0.13 87
20260506230002 54 195 0.0 0.0 0.00 0.00 0.11 87
20260506224502 54 210 0.0 0.0 0.00 0.00 0.08 86
20260506223002 54 195 1.7 0.0 0.00 0.00 0.06 85
20260506221504 55 262 2.6 0.0 0.00 0.00 0.03 83
20260506220004 56 190 1.7 0.0 0.00 0.00 0.05 80
20260506214502 56 190 0.0 0.0 0.00 0.00 0.05 79
20260506213002 56 185 2.6 0.0 0.00 0.00 0.05 79
20260506211502 56 225 2.6 0.0 0.00 0.00 0.05 80
20260506210002 56 195 0.0 0.0 0.00 0.00 0.05 80
20260506204503 56 185 0.0 0.0 0.00 0.00 0.05 80
20260506203002 56 177 2.6 0.0 0.00 0.00 0.05 79
20260506201502 56 190 3.5 0.0 0.00 0.00 0.05 79
20260506200002 57 235 11.3 0.0 0.00 0.00 0.05 76
20260506194502 57 217 3.5 0.0 0.00 0.00 0.05 74
20260506193002 57 202 3.5 0.0 0.00 0.00 0.05 74
20260506191503 57 215 3.5 0.0 0.00 0.00 0.05 74
20260506190002 58 235 2.6 0.0 0.00 0.00 0.05 73
20260506184504 58 227 3.5 0.0 0.00 0.00 0.05 72
20260506183001 59 215 4.3 0.0 0.00 0.00 0.05 70
20260506181502 60 222 3.5 0.0 0.00 0.00 0.05 67
20260506180003 61 245 5.2 0.0 0.00 0.00 0.05 63
20260506174503 62 195 3.5 0.0 0.00 0.00 0.05 62
20260506173003 62 200 3.5 0.0 0.00 0.00 0.05 61
20260506171501 62 235 5.2 0.0 0.00 0.00 0.05 62
20260506170003 63 225 3.5 0.0 0.00 0.00 0.05 63
20260506164503 63 215 2.6 0.0 0.00 0.00 0.05 63
20260506163003 63 205 2.6 0.0 0.00 0.00 0.05 62
20260506161502 63 195 5.2 0.0 0.00 0.00 0.05 62
20260506160003 64 165 3.5 0.0 0.00 0.00 0.05 59
20260506154502 64 170 4.3 0.0 0.00 0.00 0.05 58
20260506153003 65 185 5.2 0.0 0.00 0.00 0.05 56
20260506151503 67 155 2.6 0.0 0.00 0.00 0.05 51
20260506150002 67 275 2.6 0.0 0.00 0.00 0.05 51
20260506144502 68 210 2.6 0.0 0.00 0.00 0.05 49
20260506143002 68 210 2.6 0.0 0.00 0.00 0.05 51
20260506141502 67 192 2.6 0.0 0.00 0.00 0.05 52